{"data":{"norad_id":63286,"epoch":"2026-09-20T07:03:16.612992Z","epoch_age_seconds":176579,"freshness":"STALE","line1":"1 63286U 25053X   26263.29394228  .00020611  00000+0  75585-3 0  9990","line2":"2 63286  43.0007 222.9343 0001680 272.4482  87.6177 15.27603914 85951","mean_motion":15.27603914,"eccentricity":0.000168,"inclination_deg":43.0007,"raan_deg":222.9343,"arg_perigee_deg":272.4482,"mean_anomaly_deg":87.6177,"bstar":0.00075585,"rev_number":8595,"period_min":94.265273007149,"perigee_km":481.82482262049,"apogee_km":484.13015708908,"semimajor_km":6861.1144898548,"source":"CELESTRAK","updated_at":"2026-09-21T09:00:34.966488Z"}}